DECAYED
Showing default

DRAGON ENDURANCE 4, 63204 (Decayed)

Orbit data source: Space-Track

DRAGON ENDURANCE 4, 63204 was a payload satellite owned by SpaceX (US) in LEO that was launched on Fri, 14 Mar 2025 UTC via an FALCON 9 launch vehicle from the Air Force Eastern Test Range (AFETR). Payload-class satellites include a variety of spacecraft equipped with specific instruments for various scientific and technological missions. These include communications satellites like Starlink; space stations such as the ISS; scientific satellites like the Hubble; Earth observation satellites from companies like Planet Labs, Umbra, and HawkEye 360; GPS; miniature CubeSats for education and research; and military/defense satellites.

Loading next visibility...
Identifier
63204, 2025-049A
Orbit
Decayed
Country
Flag of USUS
Related business
Manufacturer
SpaceX
Mission
Decayed Commercial Spaceship
Bus & Motor
DRAGON CM, Unknown motor
Mass
~13,055 kg wet, ~9,500 kg dry
Launch date (UTC)
2025-03-14 (1 year ago)
Launch vehicle
FALCON 9
Launch site
Air Force Eastern Test Range (AFETR)
Object type
Payload
Rocket body
Debris
Shape & HBR
Trunc Cone + Cyl + 4 Fin, 14.5 m
Radar Cross Section
21.677 m²

Expand to show TLE details & history
Last TLE update: 9 months ago

TLE from 9 months ago
0 DRAGON ENDURANCE 4
1 63204U 25049A   25222.92732718  .00008419  00000-0  15293-3 0  9992
2 63204  51.6346  35.7476 0001307 177.0594 183.0403 15.50446935 22890
Epoch: 2025-08-10T22:15Z
TLE epoch observation values (Epoch: 2025-08-10T22:15:21.068Z)
Latitude
-0.00001°
Longitude
102.26816°
Altitude
417.048 km
Speed
7.662 km/s
True Right ascension
02h 22m 59s
True Declination
0° 00' 00"
Sunlit
Object was in daylight at epoch
Visualization orbit readout
Latitude
Unknown
Longitude
Unknown
Altitude
Unknown
Speed
Unknown
Apparent Right ascension
Unknown
Apparent Declination
Unknown
Sunlit
N/A
Visualization observer readout
Local Sidereal Time
13:31:06
Azimuth
Unknown
Elevation
Unknown
Doppler factor
Unknown
Orbital elements
Apogee altitude
416.817 km
Perigee altitude
415.041 km
Semi-major axis
6,794.066 km
Eccentricity
0.00013
Inclination
51.6346°
RAAN
35.7476°
Arg. of periapsis
177.0594°
True anomaly
183.03951°
Mean anomaly
183.0403°
Eccentric anomaly
183.0399°
Mean motion
3.87569 °/min
Orbital period
92.89 mins
BSTAR
0.00015293
Loading maneuver chart data...
Computing Atmospheric mass density...
Loading historical data...
Loading historical data...
Loading historical data...
Loading historical data...
Loading historical data...
Loading historical data...
Loading historical data...
Other satellites on launch #49 in the year 2025 (2025-03-14 UTC)

Documentation

Showing up to 5 results
|